User: anonymous   Login
Location: Unspecified
(0.0000°N, 0.0000°E)
Time: 03:57:23
(UTC+00:00)
Language:

CICERO 10 - Orbit

View from above orbital plane
View from above orbital plane
View from above satellite
View from above satellite

Ground track
Ground track

The orbit data is extracted from the following two-line orbital elements,

1 43690U 18088A   23334.01147073  .00050268  00000-0  10244-2 0  9999
2 43690  85.0252 319.6900 0007121 359.0172   1.1068 15.46008157281006
Epoch (UTC): 30 November 2023 00:16:31
Eccentricity: 0.0007121
inclination: 85.0252°
perigee height: 423 km
apogee height: 433 km
right ascension of ascending node: 319.6900°
argument of perigee: 359.0172°
revolutions per day: 15.46008157
mean anomaly at epoch: 1.1068°
orbit number at epoch: 28100

The dashed part of the orbit path shows where the satellite is in the earth's shadow,  

DLR